Pitt Meadows, British Columbia

2:13 PM PDT on October 19, 2017 (GMT -0700)
Pitt Meadows

Weather History for CWMM - March, 2013

Change the Weather History Date:

Tuesday, March 26, 2013

  Actual Average Record
Temperature  
Mean Temperature 46 °F -  
Max Temperature 60 °F - - ()
Min Temperature 33 °F - - ()
Degree Days  
Heating Degree Days 18    
Moisture  
Dew Point 35 °F    
Average Humidity 68    
Maximum Humidity 94    
Minimum Humidity 29    
Precipitation  
Precipitation 0.00 in - - ()
Sea Level Pressure  
Sea Level Pressure 30.00 in    
Wind  
Wind Speed 1 mph ()    
Max Wind Speed 7 mph    
Max Gust Speed -    
T = Trace of Precipitation, MM = Missing Value Source: Averaged Metar Reports

Daily Weather History Graph

Daily Weather History Graph

Search for Another Location

Airport or City:

Trip Planner

Search our weather history database for the weather conditions in past years. The results will help you decide how hot, cold, wet, or windy it might be!

Date:

Astronomy

Mar. 26, 2013 Rise Set
Actual Time 6:59 AM PDT 7:33 PM PDT
Civil Twilight 6:28 AM PDT 8:05 PM PDT
Nautical Twilight 5:50 AM PDT 8:43 PM PDT
Astronomical Twilight 5:10 AM PDT 9:23 PM PDT
Moon 7:18 PM PDT (3/26) 6:20 AM PDT (3/26)
Length of Visible Light 13h 37m
Length of Day
12h 33m
Full, 100% of the Moon is Illuminated
Mar 26
Full
Mar 27
Full
Apr 2
Last Quarter
Apr 10
New
Apr 18
First Quarter

Hourly Weather History & Observations

Time (PDT) Temp. Dew Point Humidity Pressure Visibility Wind Dir Wind Speed Gust Speed Precip Events Conditions
12:00 AM 38.8 °F 35.1 °F 86% 29.99 in - SSW 1.2 mph - N/A   Unknown
1:00 AM 37.0 °F 34.7 °F 91% 29.99 in - Calm Calm - N/A   Unknown
2:00 AM 36.9 °F 35.1 °F 93% 29.99 in - Calm Calm - N/A   Unknown
3:00 AM 35.6 °F 33.6 °F 92% 29.99 in - Calm Calm - N/A   Unknown
4:00 AM 35.2 °F 33.6 °F 94% 29.99 in - Calm Calm - N/A   Unknown
5:00 AM 35 °F 33 °F 88% 29.99 in - Calm Calm - -  
5:00 AM 34.5 °F 31.3 °F 88% 29.99 in - Calm Calm - N/A   Unknown
6:00 AM 34.0 °F 31.8 °F 92% 30.00 in - Calm Calm - N/A   Unknown
7:00 AM 34.0 °F 31.8 °F 92% 30.01 in - Calm Calm - N/A   Unknown
8:00 AM 35.8 °F 33.8 °F 92% 30.01 in - Calm Calm - N/A   Unknown
9:00 AM 40.5 °F 35.2 °F 82% 30.01 in - Calm Calm - N/A   Unknown
10:00 AM 44.2 °F 36.0 °F 73% 30.02 in - South 1.2 mph - N/A   Unknown
11:00 AM 49 °F 35 °F 46% 30.03 in - ESE 1.2 mph - -  
11:00 AM 49.3 °F 34.5 °F 57% 30.03 in - ESE 1.2 mph - N/A   Unknown
12:00 PM 54.3 °F 35.8 °F 50% 30.02 in - ESE 2.3 mph - N/A   Unknown
1:00 PM 56.1 °F 34.2 °F 44% 30.01 in - SSW 3.5 mph - N/A   Unknown
2:00 PM 56.8 °F 35.1 °F 44% 30.01 in - NW 2.3 mph - N/A   Unknown
3:00 PM 59.0 °F 34.5 °F 40% 30.00 in - WNW 3.5 mph - N/A   Unknown
4:00 PM 59.7 °F 38.1 °F 45% 29.99 in - West 6.9 mph - N/A   Unknown
5:00 PM 59 °F 36 °F 29% 29.98 in - WSW 4.6 mph - -  
5:00 PM 59.0 °F 35.6 °F 42% 29.98 in - WSW 4.6 mph - N/A   Unknown
6:00 PM 58.1 °F 36.0 °F 44% 29.97 in - West 4.6 mph - N/A   Unknown
7:00 PM 55.0 °F 37.6 °F 52% 29.97 in - West 4.6 mph - N/A   Unknown
8:00 PM 52.2 °F 35.6 °F 53% 29.97 in - West 3.5 mph - N/A   Unknown
9:00 PM 49.5 °F 34.0 °F 55% 29.98 in - NW 2.3 mph - N/A   Unknown
10:00 PM 45.1 °F 36.3 °F 71% 29.98 in - West 1.2 mph - N/A   Unknown
11:00 PM 43 °F 38 °F 77% 29.98 in - Calm Calm - -  
11:00 PM 43.2 °F 38.3 °F 83% 29.98 in - Calm Calm - N/A   Unknown